Weather History for KLBF - June, 2014

Change the Weather History Date:

Sunday, June 8, 2014

  Actual Average Record
Temperature  
Mean Temperature 58 °F 65 °F  
Max Temperature 65 °F 79 °F 100 °F (2000)
Min Temperature 50 °F 52 °F 36 °F (2007)
Degree Days  
Heating Degree Days 7 3  
Month to date heating degree days 15 27  
Since 1 June heating degree days 15 27  
Since 1 July heating degree days 6845 6662  
Cooling Degree Days 0 3  
Month to date cooling degree days 19 19  
Year to date cooling degree days 68 47  
Since 1 June cooling degree days 19 19  
Growing Degree Days 7 (Base 50)    
Moisture  
Dew Point 53 °F    
Average Humidity 82    
Maximum Humidity 96    
Minimum Humidity 67    
Precipitation  
Precipitation 1.17 in 0.12 in 2.61 in (1974)
Month to date precipitation 4.24 1.03  
Year to date precipitation 8.53 8.47  
Snow  
Snow 0.00 in 0.00 in 0.00 in ()
Month to date snowfall T 0.0  
Since 1 June snowfall T 0.0  
Since 1 July snowfall 29.8 28.5  
Snow Depth 0.00 in    
Sea Level Pressure  
Sea Level Pressure 29.97 in    
Wind  
Wind Speed 12 mph (ESE)    
Max Wind Speed 35 mph    
Max Gust Speed 43 mph    
Visibility 7 miles    
Events Rain , Thunderstorm    
T = Trace of Precipitation, MM = Missing Value Source: NWS Daily Summary

Daily Weather History Graph

Daily Weather History Graph

Search for Another Location

Airport or City:

Trip Planner

Search our weather history database for the weather conditions in past years. The results will help you decide how hot, cold, wet, or windy it might be!

Date:

Astronomy

Jun. 08, 2014 Rise Set
Actual Time 6:10 AM CDT 9:13 PM CDT
Civil Twilight 5:36 AM CDT 9:47 PM CDT
Nautical Twilight 4:54 AM CDT 10:29 PM CDT
Astronomical Twilight 4:04 AM CDT 11:19 PM CDT
Moon 4:31 PM CDT (6/8) 3:06 AM CDT (6/8)
Length of Visible Light 16h 10m
Length of Day
15h 03m
Waxing Gibbous, 77% of the Moon is Illuminated
Jun 8
Waxing Gibbous
Jun 12
Full
Jun 19
Last Quarter
Jun 27
New
Jul 5
First Quarter

Hourly Weather History & Observations

Time (CDT) Temp. Dew Point Humidity Pressure Visibility Wind Dir Wind Speed Gust Speed Precip Events Conditions
12:53 AM 57.0 °F 50.0 °F 77% 30.12 in 10.0 mi ESE 6.9 mph - N/A   Overcast
1:53 AM 54.0 °F 50.0 °F 86% 30.09 in 10.0 mi East 5.8 mph - N/A   Mostly Cloudy
2:53 AM 51.1 °F 48.0 °F 89% 30.07 in 10.0 mi Calm Calm - N/A   Clear
3:53 AM 53.1 °F 50.0 °F 89% 30.06 in 10.0 mi East 3.5 mph - N/A   Overcast
4:53 AM 50.0 °F 46.9 °F 89% 30.04 in 10.0 mi East 6.9 mph - N/A   Scattered Clouds
5:53 AM 53.1 °F 50.0 °F 89% 30.07 in 10.0 mi South 6.9 mph - N/A   Overcast
6:53 AM 53.1 °F 50.0 °F 89% 30.07 in 10.0 mi SE 6.9 mph - N/A   Mostly Cloudy
7:53 AM 55.0 °F 50.0 °F 83% 30.07 in 10.0 mi ESE 8.1 mph - N/A   Overcast
8:53 AM 55.9 °F 48.9 °F 77% 30.06 in 10.0 mi SE 16.1 mph - N/A   Overcast
9:53 AM 57.0 °F 48.9 °F 74% 30.05 in 10.0 mi SE 12.7 mph 21.9 mph N/A   Overcast
10:39 AM 57.9 °F 48.9 °F 72% 30.07 in 10.0 mi SSE 10.4 mph - N/A   Overcast
10:53 AM 57.9 °F 48.9 °F 72% 30.03 in 10.0 mi SSE 9.2 mph - N/A   Overcast
11:53 AM 59.0 °F 50.0 °F 72% 30.04 in 10.0 mi SSE 11.5 mph 19.6 mph N/A   Overcast
12:53 PM 60.1 °F 52.0 °F 75% 30.01 in 10.0 mi SE 10.4 mph - N/A   Overcast
1:53 PM 63.0 °F 53.1 °F 70% 29.98 in 10.0 mi SE 10.4 mph - N/A   Overcast
2:38 PM 63.0 °F 54.0 °F 72% 29.97 in 10.0 mi ESE 13.8 mph - N/A   Overcast
2:53 PM 64.0 °F 54.0 °F 70% 29.94 in 10.0 mi SE 11.5 mph - N/A   Overcast
3:53 PM 64.0 °F 54.0 °F 70% 29.91 in 10.0 mi SE 9.2 mph - N/A   Overcast
4:17 PM 63.0 °F 55.0 °F 75% 29.94 in 10.0 mi ESE 13.8 mph - N/A   Overcast
4:28 PM 63.0 °F 55.0 °F 75% 29.94 in 10.0 mi ESE 11.5 mph - N/A   Overcast
4:53 PM 62.1 °F 55.9 °F 80% 29.92 in 7.0 mi East 11.5 mph - 0.00 in Rain Light Rain
5:04 PM 60.1 °F 57.0 °F 90% 29.94 in 1.8 mi East 8.1 mph - 0.01 in Rain Rain
5:22 PM 60.1 °F 57.0 °F 90% 29.95 in 2.5 mi East 8.1 mph - 0.04 in Rain Light Rain
5:36 PM 60.1 °F 57.0 °F 90% 29.93 in 5.0 mi ENE 6.9 mph - 0.05 in Rain Light Rain
5:53 PM 60.1 °F 57.0 °F 90% 29.90 in 2.0 mi East 8.1 mph - 0.08 in Rain Rain
6:06 PM 60.1 °F 57.0 °F 90% 29.92 in 5.0 mi East 9.2 mph - 0.01 in Rain Light Rain
6:39 PM 59.0 °F 57.9 °F 96% 29.92 in 1.8 mi ESE 11.5 mph - 0.02 in Rain Rain
6:53 PM 59.0 °F 57.9 °F 96% 29.90 in 1.8 mi ESE 10.4 mph - 0.05 in Rain Light Rain
6:58 PM 59.0 °F 57.9 °F 96% 29.92 in 1.2 mi ESE 10.4 mph - 0.03 in Rain Rain
7:05 PM 59.0 °F 57.9 °F 96% 29.91 in 2.0 mi ESE 9.2 mph - 0.04 in Rain Light Rain
7:18 PM 59.0 °F 57.9 °F 96% 29.91 in 3.0 mi ESE 10.4 mph - 0.05 in Rain Light Rain
7:41 PM 60.1 °F 57.9 °F 93% 29.91 in 4.0 mi East 8.1 mph - 0.05 in Rain Light Rain
7:53 PM 59.0 °F 57.9 °F 96% 29.88 in 3.0 mi East 6.9 mph - 0.06 in Rain Light Rain
8:00 PM 60.1 °F 57.9 °F 93% 29.91 in 3.0 mi East 5.8 mph - 0.00 in Rain Light Rain
8:08 PM 60.1 °F 57.9 °F 93% 29.90 in 5.0 mi East 8.1 mph - 0.00 in Rain , Thunderstorm Light Rain
8:19 PM 60.1 °F 57.9 °F 93% 29.91 in 3.0 mi East 6.9 mph - 0.02 in Rain Light Rain
8:53 PM 53.1 °F 51.1 °F 93% 29.88 in 10.0 mi NNE 18.4 mph 25.3 mph 0.05 in   Overcast
9:53 PM 52.0 °F 50.0 °F 93% 29.87 in 10.0 mi NE 18.4 mph 26.5 mph 0.00 in   Overcast
10:53 PM 51.1 °F 48.9 °F 92% 29.90 in 4.0 mi NNE 20.7 mph 27.6 mph 0.13 in Rain Heavy Rain
11:07 PM 51.1 °F 48.9 °F 92% 29.92 in 3.0 mi NNE 23.0 mph 31.1 mph 0.09 in Rain Heavy Rain
11:24 PM 51.1 °F 48.9 °F 92% 29.93 in 2.5 mi NNE 21.9 mph 32.2 mph 0.20 in Rain Heavy Rain
11:53 PM 50.0 °F 48.9 °F 96% 29.90 in 2.5 mi NNE 28.8 mph 34.5 mph 0.42 in Rain Heavy Rain